Location: ??????????
(54.7560°N, 39.1389°E)
Time: 01:46:34
(UTC+00:00)

H-2A R/B - Pass Details

Date: 19 May 2025
Orbit: 492 x 574 km, 98.2° (Epoch: 13 June)

Event Time Altitude Azimuth Distance (km) Brightness Sun altitude
Exits shadow 21:11:59 14° 125° (SE) 1,599 4.3 -15.3°
Maximum altitude 21:14:56 34° 65° (ENE) 913 3.6 -15.3°
Drops below altitude 10° 21:18:28 10° 360° (N) 1,799 6.4 -15.3°
Sets 21:20:41 0° 351° (N) 2,679 7.6 -15.3°
